W4HSV Weather Reports


time (UTC)temp
C
wind
direction
speed
KPH
gust
KPH
rain 1hr
cm
rain 24hr
cm
rain mn
cm
humidity
%
barometer
mb
20191022233827 15 295 1.6 4.8 0.00 0.64 0.00 57 1017.4
20191022233328 15 294 3.2 6.4 0.00 0.64 0.00 57 1017.3
20191022232830 15 295 3.2 6.4 0.00 0.64 0.00 56 1017.2
20191022232329 15 297 3.2 8.0 0.00 0.64 0.00 56 1017.1
20191022231832 15 303 3.2 11.3 0.00 0.64 0.00 55 1017.0
20191022231331 15 300 6.4 11.3 0.00 0.76 0.00 54 1017.0
20191022230831 16 287 3.2 8.0 0.00 0.76 0.00 53 1016.8
20191022230331 16 296 3.2 8.0 0.00 0.76 0.00 53 1016.8
20191022225832 16 316 3.2 19.3 0.00 0.76 0.00 52 1016.8
20191022225336 16 291 4.8 19.3 0.00 0.76 0.00 51 1016.7
20191022224838 16 299 6.4 19.3 0.00 0.76 0.00 50 1016.6
20191022224337 16 278 11.3 19.3 0.00 0.76 0.00 49 1016.6
20191022223838 17 297 9.7 19.3 0.00 0.76 0.00 49 1016.5
20191022223337 17 263 6.4 20.9 0.00 0.76 0.00 49 1016.5
20191022222838 17 297 9.7 20.9 0.00 0.76 0.00 49 1016.4
20191022222339 17 270 6.4 24.1 0.00 0.76 0.00 49 1016.3
20191022221842 17 297 11.3 24.1 0.00 0.76 0.00 48 1016.3
20191022221342 17 280 8.0 25.7 0.00 1.02 0.00 49 1016.3
20191022220842 17 316 14.5 25.7 0.00 1.02 0.00 48 1016.2
20191022220343 17 286 4.8 22.5 0.00 1.02 0.00 48 1016.2
20191022215824 17 296 12.9 22.5 0.00 1.02 0.00 47 1016.2
20191022215329 17 296 14.5 22.5 0.00 1.02 0.00 46 1016.2
20191022214832 17 290 8.0 20.9 0.00 1.02 0.00 46 1016.2
20191022214333 17 293 12.9 22.5 0.00 1.02 0.00 46 1016.2
20191022213833 17 302 12.9 25.7 0.00 1.02 0.00 47 1016.2
20191022213332 17 293 11.3 25.7 0.00 1.02 0.00 45 1016.1
20191022212832 17 305 11.3 24.1 0.00 1.02 0.00 45 1016.2
20191022212333 17 253 16.1 27.4 0.00 1.02 0.00 45 1016.2
20191022211835 18 280 19.3 27.4 0.00 1.02 0.00 44 1016.1
20191022211334 18 286 12.9 27.4 0.00 1.17 0.00 44 1016.1
20191022210835 18 283 9.7 25.7 0.00 1.17 0.00 45 1016.1
20191022210335 18 283 16.1 25.7 0.00 1.17 0.00 44 1016.2
20191022205836 18 311 11.3 25.7 0.00 1.17 0.00 46 1016.2
20191022205336 18 281 8.0 24.1 0.00 1.17 0.00 46 1016.2
20191022204842 18 303 9.7 22.5 0.00 1.17 0.00 45 1016.1
20191022204343 18 293 14.5 27.4 0.00 1.17 0.00 45 1016.1
20191022203844 18 271 16.1 25.7 0.00 1.17 0.00 44 1016.0
20191022203343 18 281 16.1 22.5 0.00 1.17 0.00 44 1015.9
20191022202823 18 239 8.0 27.4 0.00 1.17 0.00 44 1015.9
20191022202323 18 281 12.9 27.4 0.00 1.17 0.00 44 1015.9
20191022201824 18 301 14.5 24.1 0.00 1.17 0.00 44 1015.8
20191022201325 18 297 17.7 24.1 0.00 1.52 0.00 42 1015.9
20191022200826 18 319 12.9 24.1 0.00 1.52 0.00 43 1015.9
20191022200327 18 283 6.4 27.4 0.00 1.52 0.00 45 1016.0
20191022195828 18 282 11.3 30.6 0.00 1.52 0.00 43 1016.0
20191022195328 18 266 11.3 29.0 0.00 1.52 0.00 47 1016.0
20191022194835 18 301 9.7 24.1 0.00 1.52 0.00 46 1015.9
20191022194334 18 294 16.1 27.4 0.00 1.52 0.00 46 1015.9
20191022193835 18 332 20.9 27.4 0.00 1.52 0.00 46 1015.9
20191022193335 18 294 14.5 30.6 0.00 1.52 0.00 46 1015.8
20191022192835 18 297 14.5 30.6 0.00 1.52 0.00 47 1015.8
20191022192336 18 289 19.3 30.6 0.00 1.52 0.00 45 1015.9
20191022191838 18 306 17.7 32.2 0.00 1.52 0.00 45 1015.9
20191022191339 18 313 20.9 32.2 0.00 1.65 0.00 44 1015.9
20191022190839 18 296 16.1 27.4 0.00 1.65 0.00 46 1015.9
20191022190340 18 287 17.7 32.2 0.00 1.65 0.00 48 1015.9
20191022185841 18 295 20.9 32.2 0.00 1.65 0.00 47 1015.9
20191022185323 18 258 11.3 22.5 0.00 1.65 0.00 49 1015.9
20191022184829 18 287 16.1 22.5 0.00 1.65 0.00 49 1015.9
20191022184330 18 286 12.9 24.1 0.00 1.65 0.00 47 1015.8
20191022183831 18 287 16.1 24.1 0.00 1.65 0.00 46 1015.9
20191022183331 18 301 12.9 25.7 0.00 1.65 0.00 49 1015.9
20191022182832 17 308 17.7 27.4 0.00 1.65 0.00 46 1015.9
20191022182332 17 319 16.1 29.0 0.00 1.65 0.00 47 1015.9
20191022181834 17 289 19.3 29.0 0.00 1.65 0.00 46 1015.9
20191022181334 17 285 17.7 25.7 0.00 1.78 0.00 48 1016.0
20191022180834 18 287 12.9 27.4 0.00 1.78 0.00 48 1016.0
20191022180334 17 260 16.1 27.4 0.00 1.78 0.00 49 1016.0
20191022175835 17 278 14.5 20.9 0.00 1.78 0.00 52 1016.2
20191022175336 17 260 16.1 20.9 0.00 1.78 0.00 52 1016.2
20191022174837 17 279 9.7 25.7 0.00 1.78 0.00 53 1016.3
20191022174340 17 291 12.9 25.7 0.00 1.78 0.00 51 1016.4
20191022173841 17 276 16.1 24.1 0.00 1.78 0.00 52 1016.4
20191022173341 17 285 16.1 25.7 0.00 1.78 0.00 50 1016.5
20191022172824 17 279 16.1 25.7 0.00 1.78 0.00 51 1016.6
20191022172324 17 264 9.7 22.5 0.00 1.78 0.00 55 1016.6
20191022171826 17 274 9.7 20.9 0.00 1.78 0.00 54 1016.7
20191022171326 17 265 12.9 22.5 0.00 1.78 0.00 55 1016.7
20191022170826 17 316 8.0 20.9 0.00 1.78 0.00 55 1016.7
20191022170327 17 287 9.7 20.9 0.00 1.78 0.00 55 1016.7
20191022165828 17 291 12.9 24.1 0.00 1.78 0.00 53 1016.8
20191022165329 17 220 8.0 24.1 0.00 1.78 0.00 55 1016.8
20191022164831 17 283 14.5 30.6 0.00 1.78 0.00 52 1016.8
20191022164334 17 271 17.7 30.6 0.00 1.78 0.00 49 1016.8
20191022163835 17 254 11.3 24.1 0.00 1.78 0.00 52 1016.8
20191022163335 17 270 17.7 24.1 0.00 1.78 0.00 48 1016.8
20191022162836 17 283 17.7 24.1 0.00 1.78 0.00 52 1017.0
20191022162335 17 280 12.9 25.7 0.00 1.78 0.00 52 1017.0
20191022161837 17 297 16.1 25.7 0.00 1.78 0.00 52 1016.9
20191022161335 17 284 14.5 22.5 0.00 1.78 0.00 54 1017.0
20191022160836 17 297 12.9 20.9 0.00 1.78 0.00 54 1017.0
20191022160336 16 298 9.7 22.5 0.00 1.78 0.00 55 1017.1
20191022155836 17 320 17.7 22.5 0.00 1.78 0.00 52 1016.9
20191022155337 17 256 11.3 20.9 0.00 1.78 0.00 52 1016.8
20191022154839 17 228 11.3 20.9 0.00 1.78 0.00 54 1016.8
20191022154338 17 318 9.7 19.3 0.00 1.78 0.00 57 1016.9
20191022153824 16 307 8.0 16.1 0.00 1.78 0.00 57 1016.7
20191022153324 16 287 9.7 16.1 0.00 1.78 0.00 57 1016.6
20191022152825 16 301 8.0 16.1 0.00 1.78 0.00 61 1016.6
20191022152326 16 278 8.0 16.1 0.00 1.78 0.00 59 1016.6
20191022151828 16 317 6.4 19.3 0.00 1.78 0.00 61 1016.6
20191022151328 16 309 8.0 19.3 0.00 1.78 0.00 61 1016.6
20191022150828 15 305 12.9 17.7 0.00 1.78 0.00 63 1016.6
20191022150330 15 309 11.3 20.9 0.00 1.78 0.00 67 1016.6
20191022145830 15 337 9.7 20.9 0.00 1.78 0.00 66 1016.6
20191022145331 15 314 14.5 19.3 0.00 1.78 0.00 68 1016.6
20191022144834 15 301 8.0 12.9 0.00 1.78 0.00 73 1016.6
20191022144334 15 291 6.4 12.9 0.00 1.78 0.00 74 1016.5
20191022143838 15 317 8.0 16.1 0.00 1.78 0.00 76 1016.5
20191022143339 15 301 6.4 16.1 0.00 1.78 0.00 76 1016.5
20191022142839 14 308 8.0 17.7 0.00 1.78 0.00 76 1016.5
20191022142340 14 293 9.7 20.9 0.00 1.78 0.00 78 1016.5
20191022141842 14 303 11.3 20.9 0.00 1.78 0.00 79 1016.5
20191022141342 14 310 14.5 19.3 0.00 1.78 0.00 80 1016.5
20191022140842 13 304 9.7 16.1 0.00 1.78 0.00 83 1016.5
20191022140342 13 293 8.0 17.7 0.00 1.78 0.00 85 1016.4
20191022135823 13 312 8.0 22.5 0.00 1.78 0.00 85 1016.3
20191022135324 13 297 11.3 22.5 0.00 1.78 0.00 87 1016.4
20191022134826 13 289 8.0 17.7 0.00 1.78 0.00 90 1016.4
20191022134326 13 295 8.0 17.7 0.00 1.78 0.00 91 1016.3
20191022133831 13 276 8.0 16.1 0.00 1.78 0.00 93 1016.3
20191022133333 13 293 4.8 8.0 0.00 1.78 0.00 94 1016.2
20191022132833 12 301 1.6 16.1 0.00 1.78 0.00 95 1016.1
20191022132333 12 301 11.3 16.1 0.00 1.78 0.00 95 1016.0
20191022131835 12 294 8.0 12.9 0.00 1.78 0.00 96 1015.9
20191022131335 12 314 1.6 4.8 0.00 1.78 0.00 96 1015.8
20191022130835 12 315 0.0 0.0 0.00 1.78 0.00 96 1015.7
20191022130337 12 315 0.0 0.0 0.00 1.78 0.00 96 1015.7
20191022125838 12 315 0.0 3.2 0.00 1.78 0.00 96 1015.7
20191022125338 12 315 0.0 4.8 0.00 1.78 0.00 96 1015.6
20191022124841 12 315 0.0 0.0 0.00 1.78 0.00 96 1015.5
20191022124340 12 315 0.0 0.0 0.00 1.78 0.00 96 1015.4
20191022123824 12 315 0.0 3.2 0.00 1.78 0.00 96 1015.5
20191022123325 12 315 0.0 3.2 0.00 1.78 0.00 96 1015.4
20191022122826 12 315 0.0 3.2 0.00 1.78 0.00 96 1015.4
20191022122327 12 315 0.0 3.2 0.00 1.78 0.00 96 1015.3
20191022121829 12 315 0.0 3.2 0.00 1.78 0.00 96 1015.3
20191022121329 12 315 0.0 3.2 0.00 1.78 0.00 96 1015.2
20191022120829 12 315 0.0 3.2 0.00 1.78 0.00 96 1015.2
20191022120330 12 315 0.0 3.2 0.00 1.78 0.00 96 1015.3
20191022115831 12 315 0.0 6.4 0.00 1.78 0.00 96 1015.2
20191022115331 12 315 1.6 6.4 0.00 1.78 0.00 96 1015.2
20191022114833 12 315 0.0 0.0 0.00 1.78 0.00 96 1015.1
20191022114333 12 315 0.0 3.2 0.00 1.78 0.00 96 1015.1
20191022113833 12 315 0.0 3.2 0.00 1.78 0.00 96 1015.1
20191022113339 12 315 0.0 0.0 0.00 1.78 0.00 95 1015.1
20191022112839 12 315 0.0 0.0 0.00 1.78 0.00 95 1015.0
20191022112341 12 315 0.0 0.0 0.00 1.78 0.00 95 1015.0
20191022111824 12 315 0.0 0.0 0.00 1.78 0.00 95 1014.9
20191022111324 12 315 0.0 0.0 0.00 1.78 0.00 95 1014.8
20191022110824 12 315 0.0 0.0 0.00 1.78 0.00 94 1014.8
20191022110325 12 315 0.0 0.0 0.00 1.78 0.00 94 1014.8
20191022105825 12 315 0.0 0.0 0.00 1.78 0.00 94 1014.7
20191022105326 12 315 0.0 0.0 0.00 1.78 0.00 94 1014.6
20191022104828 12 315 0.0 0.0 0.00 1.78 0.00 94 1014.7
20191022104328 13 315 0.0 0.0 0.00 1.78 0.00 94 1014.7
20191022103829 13 315 0.0 0.0 0.00 1.78 0.00 94 1014.6
20191022103334 13 315 0.0 0.0 0.00 1.78 0.00 94 1014.6
20191022102834 13 315 0.0 0.0 0.00 1.78 0.00 94 1014.7
20191022102336 13 315 0.0 1.6 0.00 1.78 0.00 93 1014.7
20191022101837 13 315 0.0 6.4 0.00 1.78 0.00 94 1014.6
20191022101336 13 315 1.6 6.4 0.00 1.78 0.00 93 1014.5
20191022100837 13 315 1.6 8.0 0.00 1.78 0.00 93 1014.3
20191022100337 13 316 3.2 6.4 0.00 1.78 0.00 93 1014.3
20191022095838 13 316 3.2 6.4 0.00 1.78 0.00 93 1014.3
20191022095339 13 316 3.2 8.0 0.00 1.78 0.00 93 1014.3
20191022094841 13 316 4.8 9.7 0.00 1.78 0.00 92 1014.1
20191022094340 14 316 3.2 12.9 0.00 1.78 0.00 92 1014.1
20191022093840 14 326 4.8 9.7 0.00 1.78 0.00 92 1014.0
20191022093325 14 313 3.2 14.5 0.00 1.78 0.00 92 1014.0
20191022092826 14 314 8.0 14.5 0.00 1.78 0.00 92 1014.0
20191022092326 14 316 6.4 12.9 0.00 1.78 0.00 92 1013.8
20191022091829 14 322 6.4 12.9 0.00 1.78 0.00 92 1013.9
20191022091329 14 310 4.8 9.7 0.00 1.78 1.78 91 1013.8
20191022090829 15 311 6.4 14.5 0.00 1.78 1.78 91 1013.7
20191022090341 15 300 9.7 19.3 0.00 1.78 1.78 91 1013.7
20191022085842 15 312 8.0 19.3 0.00 1.78 1.78 92 1013.5
20191022085342 15 347 9.7 17.7 0.00 1.78 1.78 92 1013.4
20191022084844 15 305 8.0 17.7 0.00 1.78 1.78 93 1013.4
20191022084343 15 306 6.4 12.9 0.00 1.78 1.78 93 1013.3
20191022083824 15 310 3.2 6.4 0.00 1.78 1.78 94 1013.3
20191022083325 15 310 1.6 14.5 0.00 1.78 1.78 94 1013.2
20191022082829 15 310 4.8 14.5 0.00 1.78 1.78 94 1013.2
20191022082329 15 316 4.8 12.9 0.00 1.78 1.78 94 1013.2
20191022081832 15 312 0.0 4.8 0.00 1.78 1.78 95 1013.2
20191022081332 15 312 0.0 8.0 0.00 1.78 1.78 95 1013.2
20191022080835 15 312 3.2 14.5 0.00 1.78 1.78 95 1013.0
20191022080336 15 316 4.8 14.5 0.00 1.78 1.78 95 1012.9
20191022075836 15 326 6.4 12.9 0.00 1.78 1.78 96 1012.9
20191022075337 15 319 3.2 8.0 0.00 1.78 1.78 96 1012.9
20191022074839 15 316 1.6 8.0 0.00 1.78 1.78 96 1013.0
20191022074338 14 316 1.6 8.0 0.00 1.78 1.78 96 1012.9
20191022073839 14 314 0.0 6.4 0.00 1.78 1.78 96 1012.9
20191022073341 14 316 1.6 4.8 0.00 1.78 1.78 96 1012.9
20191022072825 13 317 0.0 1.6 0.00 1.78 1.78 96 1012.9
20191022072325 13 317 0.0 0.0 0.00 1.78 1.78 96 1013.0
20191022071828 13 317 0.0 3.2 0.00 1.78 1.78 96 1013.2
20191022071328 13 317 0.0 3.2 0.00 1.78 1.78 96 1013.2
20191022070828 13 318 0.0 0.0 0.00 1.78 1.78 95 1013.2
20191022070329 13 318 0.0 0.0 0.00 1.78 1.78 95 1013.1
20191022065829 13 318 0.0 4.8 0.00 1.78 1.78 95 1013.2
20191022065330 13 318 0.0 4.8 0.00 1.78 1.78 95 1013.1
20191022064832 14 318 1.6 4.8 0.00 1.78 1.78 95 1013.1
20191022064330 14 319 0.0 0.0 0.00 1.78 1.78 95 1013.1
20191022063831 14 319 0.0 0.0 0.00 1.78 1.78 95 1013.1
20191022063332 14 319 0.0 0.0 0.00 1.78 1.78 95 1013.1
20191022062833 14 319 0.0 0.0 0.03 1.78 1.78 95 1013.0
20191022062337 13 319 0.0 1.6 0.03 1.78 1.78 94 1013.0
20191022061839 13 319 0.0 1.6 0.03 1.78 1.78 94 1012.9
20191022061339 13 319 0.0 6.4 0.03 1.78 1.78 94 1012.9
20191022060839 13 319 3.2 6.4 0.03 1.78 1.78 94 1013.0
20191022060341 14 322 0.0 0.0 0.03 1.78 1.78 94 1012.9
20191022055842 14 321 0.0 0.0 0.03 1.78 1.78 94 1012.9
20191022055342 14 322 0.0 0.0 0.03 1.78 1.78 94 1012.7
20191022054824 14 321 0.0 0.0 0.03 1.78 1.78 94 1012.5
20191022054325 14 321 0.0 0.0 0.03 1.78 1.78 93 1012.3
20191022053826 14 321 0.0 0.0 0.03 1.78 1.78 93 1012.4
20191022053328 14 321 0.0 8.0 0.03 1.78 1.78 92 1012.2
20191022052830 14 321 1.6 8.0 0.03 1.75 1.75 92 1012.4
20191022052336 14 320 0.0 16.1 0.03 1.75 1.75 92 1012.7
20191022051838 15 310 4.8 16.1 0.03 1.75 1.75 92 1012.8
20191022051338 15 325 6.4 20.9 0.03 1.75 1.75 92 1012.7
20191022050839 15 306 11.3 27.4 0.05 1.75 1.75 92 1012.7
20191022050339 15 320 14.5 29.0 0.05 1.75 1.75 92 1012.7
20191022045839 15 305 19.3 33.8 0.05 1.75 1.75 93 1012.7
20191022045339 16 316 22.5 33.8 0.05 1.75 1.75 95 1012.5
20191022044841 17 308 17.7 29.0 0.05 1.75 1.75 97 1012.5
20191022044342 17 310 8.0 14.5 0.05 1.75 1.75 97 1012.4
20191022043842 17 310 8.0 14.5 0.05 1.75 1.75 97 1012.4
20191022043342 17 285 9.7 14.5 0.08 1.75 1.75 97 1012.5
20191022042842 17 287 0.0 6.4 0.08 1.73 1.73 97 1012.3
20191022042327 17 288 0.0 6.4 0.10 1.73 1.73 97 1012.1
20191022041830 17 286 1.6 6.4 0.13 1.73 1.73 97 1012.1
20191022041329 17 285 0.0 4.8 0.20 1.73 1.73 97 1012.2
20191022040830 17 285 0.0 8.0 0.18 1.70 1.70 97 1012.1
20191022040330 17 283 1.6 8.0 0.20 1.70 1.70 97 1012.4
20191022035829 17 281 1.6 6.4 0.23 1.70 1.70 97 1012.4
20191022035329 17 281 1.6 6.4 0.28 1.70 1.70 97 1012.5
20191022034828 17 280 0.0 0.0 0.33 1.70 1.70 97 1012.3
20191022034327 17 280 0.0 0.0 0.38 1.70 1.70 97 1012.4
20191022033828 17 280 0.0 0.0 0.46 1.70 1.70 97 1012.3
20191022033328 17 280 0.0 0.0 0.43 1.68 1.68 97 1012.3
20191022032828 17 280 0.0 0.0 0.41 1.65 1.65 97 1012.4
20191022032328 17 280 0.0 4.8 0.36 1.60 1.60 97 1012.3
20191022031835 17 280 0.0 6.4 0.36 1.60 1.60 97 1012.3
20191022031333 17 280 0.0 4.8 0.28 1.52 1.52 97 1012.5
20191022030833 17 280 0.0 6.4 0.28 1.52 1.52 97 1012.2
20191022030334 17 280 0.0 8.0 0.25 1.50 1.50 96 1012.3
20191022025835 17 278 4.8 11.3 0.28 1.45 1.45 96 1012.3
20191022025337 17 271 4.8 11.3 0.25 1.42 1.42 96 1012.3
20191022024840 17 267 4.8 9.7 0.23 1.37 1.37 96 1012.2
20191022024338 17 268 1.6 6.4 0.18 1.32 1.32 96 1012.1
20191022023839 17 268 0.0 11.3 0.10 1.24 1.24 96 1012.2
20191022023339 17 268 6.4 11.3 0.10 1.24 1.24 96 1012.2
20191022022840 17 217 3.2 6.4 0.10 1.24 1.24 96 1012.2
20191022022340 17 185 3.2 6.4 0.10 1.24 1.24 96 1012.2
20191022021826 17 184 1.6 4.8 0.10 1.24 1.24 96 1012.2
20191022021326 17 154 0.0 4.8 0.10 1.24 1.24 96 1012.2
20191022020827 17 154 0.0 3.2 0.10 1.24 1.24 96 1012.0
20191022020327 17 154 0.0 3.2 0.10 1.24 1.24 96 1012.2
20191022015829 17 154 1.6 3.2 0.03 1.17 1.17 96 1012.2
20191022015330 17 154 0.0 0.0 0.03 1.17 1.17 96 1012.1
20191022014830 17 154 0.0 0.0 0.00 1.14 1.14 96 1011.9
20191022014330 17 154 0.0 1.6 0.00 1.14 1.14 96 1011.7
20191022013831 17 154 0.0 8.0 0.00 1.14 1.14 96 1011.7
20191022013330 17 154 3.2 9.7 0.00 1.14 1.14 96 1011.6
20191022012831 17 154 3.2 9.7 0.00 1.14 1.14 96 1011.5
20191022012332 17 152 0.0 3.2 0.00 1.14 1.14 96 1011.5
20191022011835 17 152 0.0 1.6 0.00 1.14 1.14 96 1011.3
20191022011339 17 152 0.0 4.8 0.00 1.14 1.14 96 1011.4
20191022010840 17 152 1.6 4.8 0.00 1.14 1.14 96 1011.4
20191022010340 17 152 1.6 4.8 0.00 1.14 1.14 96 1011.3
20191022005842 17 152 0.0 3.2 0.00 1.14 1.14 96 1011.2
20191022005344 17 152 0.0 8.0 0.00 1.14 1.14 96 1011.2
20191022004825 17 152 4.8 11.3 0.00 1.14 1.14 96 1011.3
20191022004324 17 152 6.4 11.3 0.00 1.14 1.14 96 1011.3
20191022002826 17 152 3.2 9.7 0.00 1.14 1.14 96 1011.1
20191022002326 17 151 4.8 11.3 0.00 1.14 1.14 97 1011.1
20191022001828 17 144 6.4 11.3 0.00 1.14 1.14 96 1011.0
20191022001329 17 144 4.8 11.3 0.00 1.14 1.14 97 1011.0
20191022000832 17 158 3.2 11.3 0.00 1.14 1.14 97 1011.1
20191022000333 16 158 4.8 11.3 0.00 1.14 1.14 96 1011.2
20191021235834 16 156 9.7 14.5 0.00 1.14 1.14 96 1011.0
20191021235335 16 146 8.0 14.5 0.03 1.14 1.14 96 1010.9
20191021234838 16 154 8.0 14.5 0.03 1.14 1.14 96 1010.8
20191021234338 16 154 8.0 14.5 0.03 1.14 1.14 96 1010.9